This is the latest recevied weather packets stored in our database for station/object WV6L-13. If no packets are shown the sender has not sent any weather packets the latest 10 day(s).
| Time | Temp. | Humidity | Pressure | Rain* | Wind** | Luminosity | Snow |
|---|---|---|---|---|---|---|---|
| 1777547695 | 8.33° C | 37% | 924.7 hPa | - | - | - | - |
| 1777547395 | 8.89° C | 38% | 924.9 hPa | - | - | - | - |
| 1777547096 | 8.33° C | 39% | 924.9 hPa | - | - | - | - |
| 1777546196 | 8.33° C | 39% | 925 hPa | - | - | - | - |
| 1777545596 | 8.89° C | 38% | 925 hPa | - | - | - | - |
| 1777544995 | 8.33° C | 41% | 925 hPa | - | - | - | - |
| 1777544695 | 8.33° C | 42% | 925 hPa | - | - | - | - |
| 1777544395 | 8.33° C | 40% | 924.9 hPa | - | - | - | - |
| 1777544096 | 8.33° C | 40% | 925.1 hPa | - | - | - | - |
| 1777543796 | 8.89° C | 37% | 924.9 hPa | - | - | - | - |
| 1777543496 | 8.89° C | 36% | 924.8 hPa | - | - | - | - |
| 1777543196 | 9.44° C | 36% | 924.9 hPa | - | - | - | - |
| 1777542895 | 8.89° C | 36% | 924.8 hPa | - | - | - | - |
| 1777542295 | 8.89° C | 35% | 925 hPa | - | - | - | - |
| 1777541996 | 9.44° C | 34% | 924.9 hPa | - | - | - | - |
| 1777541695 | 10° C | 34% | 925 hPa | - | - | - | - |
| 1777541395 | 10.56° C | 34% | 925.1 hPa | - | - | - | - |
| 1777541096 | 10° C | 35% | 925 hPa | - | - | - | - |
| 1777540796 | 10° C | 35% | 925.1 hPa | - | - | - | - |
| 1777540496 | 10° C | 35% | 925.2 hPa | - | - | - | - |
| 1777540195 | 10° C | 36% | 925.2 hPa | - | - | - | - |
| 1777539895 | 10° C | 38% | 925.3 hPa | - | - | - | - |
| 1777539297 | 9.44° C | 39% | 925.3 hPa | - | - | - | - |
| 1777538996 | 9.44° C | 40% | 925.5 hPa | - | - | - | - |
| 1777538097 | 10° C | 39% | 925.4 hPa | - | - | - | - |
* Rain since midnight (hover to see other rain measurements)
** Current wind speed in m/s (hover to see current wind gust speed)